Retour au catalogue

STARLINK-5188

ActifCommunicationsVLEO
NORAD 54096·PAYLOAD·🇺🇸 United States

Lancé Oct 20, 2022 depuis Cape Canaveral Space Force Station

Loading…

Prochains Passages (prochaines 24 heures)

TLE

FraisSource: CelesTrak SupGP

Époque: Sep 14, 2026, 14:45 UTC

1 54096C 22136AX  26257.61506944  .00459410  00000+0  21606-1 0  2570
2 54096  53.1607 204.7944 0001256  88.0798 273.4216 15.18828717    16

Suivez STARLINK-5188 en temps réel avec AllMySat

Download on the App Store